15 daagse weersverwachting Madrid (ES)

  • Overzicht
  • Per uur
  • 15 dagen
  • Extra
  • Vergelijk
  • Kaarten
  • Dagkaart
  • Meer »
  • Info
  • Statistieken
  • Directe link
    Temp 6h Neerslag Wind  
 07:59     20:38    Daglengte: 12:39 Vandaag
08:00
12.7 mm
6
14:00
20.3 mm
5
20:00
23.0 mm
4
 07:58     20:39    Daglengte: 12:41 Morgen
02:00
24.1 mm
4
08:00
35.3 mm
3
14:00
11°
35.7 mm
3
20:00
10°
22.1 mm
1
 07:56     20:40    Daglengte: 12:44 Donderdag 02 Apr
02:00
 
1
08:00
 
2
14:00
13°
45.8 mm
2
20:00
13°
48.9 mm
3
 07:54     20:42    Daglengte: 12:48 Vrijdag 03 Apr
02:00
 
3
Locatie info
Region: Madrid
Latitude: 40.4196°N
Longitude: -3.6920°E
665 masl
Postcode: 28013
Temp/Neerslag /Baro Onweer/DauwpuntSneeuw
    Temp Baro 1h Neerslag Dauwpunt Wind UV BewolkingSneeuw  
 07:59     20:38    Daglengte: 12:39 Vandaag
05:00
Voelt als: -3.9°
1010.1 hPa 5.7 mm
49%
-0.1°
6
Windvlaag: -3.6 km/h
91%4 cm
06:00
Voelt als: -4.0°
1009.6 hPa 2.2 mm
82%
-0.2°
6
Windvlaag: -3.9 km/h
91%4 cm warningclass
07:00
Voelt als: -3.8°
1009.4 hPa 2.4 mm
82%
-0.1°
6
Windvlaag: -3.8 km/h
91%5 cm
08:00
Voelt als: -3.4°
1009.1 hPa 2.4 mm
82%
0.2°
6
Windvlaag: -3.5 km/h
91%5 cm
09:00
Voelt als: -2.7°
1009.1 hPa 2.9 mm
82%
0.7°
6
Windvlaag: -3.4 km/h
91%5 cm
10:00
Voelt als: -1.9°
1009.2 hPa 2.8 mm
82%
1.3°
5
Windvlaag: -3.3 km/h
91%5 cm
11:00
Voelt als: -1.0°
1009.2 hPa 3.2 mm
82%
2.0°
5
Windvlaag: -3.1 km/h
91%4 cm
12:00
Voelt als: 0.4°
1009.2 hPa 3.5 mm
82%
2.9°
5
Windvlaag: -3 km/h
91%4 cm
13:00
Voelt als: 1.8°
1008.9 hPa 4.0 mm
82%
3.7°
5
Windvlaag: -2.4 km/h
91%4 cm
14:00
Voelt als: 3.4°
1008.6 hPa 4.0 mm
82%
4.3°
5
Windvlaag: -1.8 km/h
89%3 cm
15:00
Voelt als: 4.3°
1008.2 hPa 5.2 mm
82%
5.5°
4
Windvlaag: -1.6 km/h
91%2 cm
16:00
Voelt als: 5.8°
1007.7 hPa 3.5 mm
82%
5.8°
4
Windvlaag: -2.2 km/h
91%2 cm
17:00
Voelt als: 6.1°
1007.4 hPa 3.3 mm
82%
5.5°
4
Windvlaag: -1.2 km/h
86%2 cm
18:00
Voelt als: 6.1°
1007.5 hPa 3.3 mm
82%
5.6°
4
Windvlaag: -1.7 km/h
87%2 cm
19:00
Voelt als: 5.9°
1007.5 hPa 4.0 mm
82%
5.7°
4
Windvlaag: -1.7 km/h
81%1 cm
20:00
Voelt als: 6.0°
1007.6 hPa 3.6 mm
82%
6.1°
4
Windvlaag: -1.3 km/h
82%1 cm
21:00
Voelt als: 6.1°
1008.0 hPa 4.3 mm
82%
6.7°
4
Windvlaag: 0.4 km/h
86%1 cm
22:00
Voelt als: 6.4°
1008.7 hPa 3.8 mm
82%
7.0°
3
Windvlaag: 2.2 km/h
86%1 cm
23:00
Voelt als: 6.5°
1009.3 hPa 3.6 mm
82%
7.0°
3
Windvlaag: 3.3 km/h
80%1 cm
 07:58     20:39    Daglengte: 12:41 Morgen
00:00
Voelt als: 6.3°
1009.6 hPa 3.6 mm
82%
7.3°
4
Windvlaag: 2.6 km/h
70%1 cm
01:00
Voelt als: 6.3°
1009.7 hPa 4.9 mm
82%
7.4°
4
Windvlaag: 3 km/h
85%1 cm
02:00
Voelt als: 6.3°
1009.5 hPa 3.8 mm
82%
7.3°
4
Windvlaag: 2.9 km/h
88%1 cm
03:00
Voelt als: 6.2°
1009.6 hPa 4.4 mm
82%
7.2°
4
Windvlaag: 3.2 km/h
91%1 cm
04:00
Voelt als: 6.5°
1009.4 hPa 5.7 mm
82%
7.2°
3
Windvlaag: 3 km/h
91%1 cm
05:00
Voelt als: 6.4°
1009.3 hPa 6.9 mm
82%
6.8°
3
Windvlaag: 2.4 km/h
90%1 cm
06:00
Voelt als: 6.4°
1009.4 hPa 5.6 mm
82%
6.7°
3
Windvlaag: 2.5 km/h
90%1 cm
07:00
Voelt als: 6.3°
1009.8 hPa 5.4 mm
82%
6.8°
3
Windvlaag: 2.7 km/h
85%1 cm
08:00
Voelt als: 6.2°
1010.1 hPa 7.3 mm
82%
6.7°
3
Windvlaag: 2.3 km/h
68%1 cm
09:00
Voelt als: 6.1°
1010.7 hPa 5.5 mm
82%
6.3°
3
Windvlaag: 3.5 km/h
80%1 cm
10:00
Voelt als: 6.7°
1011.4 hPa 7.7 mm
82%
5.8°
3
Windvlaag: 3.1 km/h
65%1 cm
11:00
Voelt als: 7.8°
1011.7 hPa
82%
6.2°
3
Windvlaag: 2.6 km/h
55%1 cm
12:00
10°
1011.7 hPa 7.4 mm
82%
6.4°
3
Windvlaag: 2.5 km/h
55%
13:00
10°
1011.6 hPa 7.6 mm
82%
6.3°
3
Windvlaag: 2.4 km/h
38%
14:00
11°
1011.2 hPa 7.5 mm
82%
6.5°
3
Windvlaag: 2.2 km/h
24%
15:00
12°
1010.7 hPa 7.4 mm
82%
6.2°
3
Windvlaag: 2.2 km/h
26%
16:00
12°
1010.0 hPa 7.3 mm
82%
6.0°
3
Windvlaag: 2.1 km/h
29%
17:00
13°
1009.5 hPa 7.4 mm
82%
5.1°
2
Windvlaag: 1.8 km/h
33%
18:00
13°
1009.3 hPa
82%
4.3°
2
Windvlaag: 1.7 km/h
51%
19:00
11°
1010.1 hPa
72%
4.6°
3
Windvlaag: 1.1 km/h
29%
20:00
10°
1010.3 hPa
22%
4.0°
1
Windvlaag: 0.8 km/h
12%
21:00
Voelt als: 9.4°
1010.8 hPa
14%
4.3°
1
Windvlaag: 0.5 km/h
20%
22:00
Voelt als: 8.5°
1011.3 hPa
14%
4.4°
1
Windvlaag: -0.1 km/h
33%
23:00
Voelt als: 7.3°
1011.9 hPa
22%
5.2°
1
Windvlaag: -0.3 km/h
44%
 07:56     20:40    Daglengte: 12:44 Donderdag 02 Apr
00:00
Voelt als: 5.3°
1011.8 hPa
23%
4.6°
1
Windvlaag: 0.3 km/h
33%
01:00
Voelt als: 4.5°
1011.8 hPa
21%
4.3°
2
Windvlaag: 0.4 km/h
24%
02:00
Voelt als: 4.8°
1011.7 hPa
25%
4.3°
1
Windvlaag: 0.4 km/h
24%
03:00
Voelt als: 2.8°
1011.5 hPa
22%
3.4°
2
Windvlaag: 0.8 km/h
75%
04:00
Voelt als: 2.4°
1011.1 hPa
30%
3.3°
2
Windvlaag: 0.5 km/h
56%
05:00
Voelt als: 1.4°
1011.0 hPa
76%
2.9°
2
Windvlaag: 0.1 km/h
58%
06:00
Voelt als: 1.6°
1010.9 hPa
78%
2.7°
2
Windvlaag: 0.4 km/h
75%
07:00
Voelt als: 1.6°
1011.0 hPa
45%
2.6°
2
Windvlaag: 0.7 km/h
82%
08:00
Voelt als: 1.5°
1011.3 hPa
79%
2.6°
2
Windvlaag: 0.7 km/h
74%
09:00
Voelt als: 3.8°
1012.1 hPa 7.4 mm
98%
3.8°
2
Windvlaag: 1.6 km/h
76%
10:00
Voelt als: 5.5°
1012.6 hPa 7.3 mm
100%
4.3°
2
Windvlaag: 1.1 km/h
73%
11:00
Voelt als: 7.5°
1012.7 hPa 7.2 mm
100%
5.2°
2
Windvlaag: 1.1 km/h
71%
12:00
10°
1012.7 hPa
89%
6.2°
2
Windvlaag: 1 km/h
29%
13:00
12°
1012.3 hPa 12.0 mm
25%
6.8°
2
Windvlaag: 0.9 km/h
52%
14:00
13°
1011.7 hPa 12.0 mm
21%
6.7°
2
Windvlaag: 1 km/h
52%
15:00
13°
1011.4 hPa 12.2 mm
30%
6.6°
4
Windvlaag: 1 km/h
66%
16:00
13°
1011.6 hPa 12.3 mm
25%
6.8°
4
Windvlaag: 1 km/h
72%
17:00
14°
1011.3 hPa
30%
6.4°
3
Windvlaag: 1 km/h
32%
18:00
15°
1010.9 hPa
25%
5.7°
3
Windvlaag: 0.9 km/h
16%
19:00
14°
1011.3 hPa 12.0 mm
23%
6.0°
4
Windvlaag: 0.9 km/h
45%
20:00
13°
1012.4 hPa 12.4 mm
21%
7.8°
3
Windvlaag: 0.9 km/h
45%
21:00
11°
1013.0 hPa
21%
6.7°
3
Windvlaag: 7.6 km/h
38%
22:00
10°
1014.0 hPa
21%
5.8°
3
Windvlaag: 5.4 km/h
30%
23:00
10°
Voelt als: 8.1°
1014.8 hPa
21%
5.1°
3
Windvlaag: 4.8 km/h
22%
 07:54     20:42    Daglengte: 12:48 Vrijdag 03 Apr
00:00
Voelt als: 7.1°
1015.4 hPa
21%
4.3°
3
Windvlaag: 4.5 km/h
14%
01:00
Voelt als: 6.2°
1015.9 hPa
21%
3.7°
3
Windvlaag: 4.3 km/h
7%
02:00
Voelt als: 5.3°
1016.4 hPa
21%
3.0°
3
Windvlaag: 0.8 km/h
0%
03:00
Voelt als: 3.5°
1016.8 hPa 35.7 mm
100%
2.0°
3
Windvlaag: 5.4 km/h
1%
04:00
Voelt als: 2.7°
1017.0 hPa 35.7 mm
100%
1.6°
3
Windvlaag: 5.6 km/h
0%
Temp/Neerslag /Baro Onweer/DauwpuntSneeuw
    Temp Baro Neerslag Dauwpunt Wind BewolkingSneeuw  
 07:59     20:38    Daglengte: 12:39 Vandaag
05:00
Voelt als: -3.9°
1010.1 hPa 5.7 mm -0.1°
6
91%4 cm
08:00
Voelt als: -3.4°
1009.1 hPa 7.0 mm 0.2°
6
91%5 cm
11:00
Voelt als: -1.0°
1009.2 hPa 8.9 mm 2.0°
5
91%4 cm
14:00
Voelt als: 3.4°
1008.6 hPa 11.5 mm 4.3°
5
89%3 cm
17:00
Voelt als: 6.1°
1007.4 hPa 12.1 mm 5.5°
4
86%2 cm
20:00
Voelt als: 6.0°
1007.6 hPa 10.8 mm 6.1°
4
82%1 cm
23:00
Voelt als: 6.5°
1009.3 hPa 11.7 mm 7.0°
3
80%1 cm
 07:58     20:39    Daglengte: 12:41 Morgen
02:00
Voelt als: 6.3°
1009.5 hPa 12.4 mm 7.3°
4
88%1 cm
05:00
Voelt als: 6.4°
1009.3 hPa 16.9 mm 6.8°
3
90%1 cm
08:00
Voelt als: 6.2°
1010.1 hPa 18.4 mm 6.7°
3
68%1 cm
11:00
Voelt als: 7.8°
1011.7 hPa 13.2 mm 6.2°
3
55%1 cm
14:00
11°
1011.2 hPa 22.5 mm 6.5°
3
24%
17:00
13°
1009.5 hPa 22.1 mm 5.1°
2
33%
20:00
10°
1010.3 hPa   4.0°
1
12%
23:00
Voelt als: 7.3°
1011.9 hPa   5.2°
1
44%
 07:56     20:40    Daglengte: 12:44 Donderdag 02 Apr
02:00
Voelt als: 4.8°
1011.7 hPa   4.3°
1
24%
05:00
Voelt als: 1.4°
1011.0 hPa   2.9°
2
58%
08:00
Voelt als: 1.5°
1011.3 hPa   2.6°
2
74%
11:00
Voelt als: 7.5°
1012.7 hPa 21.9 mm 5.2°
2
71%
14:00
13°
1011.7 hPa 23.9 mm 6.7°
2
52%
17:00
14°
1011.3 hPa 24.5 mm 6.4°
3
32%
20:00
13°
1012.4 hPa 24.3 mm 7.8°
3
45%
23:00
10°
Voelt als: 8.1°
1014.8 hPa   5.1°
3
22%
 07:54     20:42    Daglengte: 12:48 Vrijdag 03 Apr
02:00
Voelt als: 5.3°
1016.4 hPa   3.0°
3
0%
05:00
Voelt als: 1.8°
1017.2 hPa 107.1 mm 1.3°
3
0%
08:00
Voelt als: -0.3°
1018.1 hPa 107.1 mm 0.1°
2
0%
11:00
Voelt als: 8.1°
1017.5 hPa 22.3 mm 1.0°
2
0%
14:00
13°
1017.0 hPa 22.3 mm -0.3°
2
0%
17:00
14°
1015.8 hPa 22.3 mm 2.1°
2
0%
20:00
14°
1014.7 hPa 22.3 mm 4.4°
1
0%
23:00
10°
1016.2 hPa 22.3 mm 3.7°
2
0%
 07:53     20:43    Daglengte: 12:50 Zaterdag 04 Apr
02:00
Voelt als: 4.8°
1017.5 hPa 22.3 mm 2.7°
2
0%
05:00
Voelt als: 3.2°
1018.1 hPa 22.3 mm 2.9°
3
3%
08:00
Voelt als: 1.5°
1018.8 hPa 22.3 mm 3.0°
3
6%
11:00
10°
Voelt als: 8.0°
1017.6 hPa 22.3 mm 4.8°
4
24%
14:00
16°
1016.5 hPa 22.3 mm 4.9°
4
42%
17:00
16°
1016.1 hPa 22.3 mm 5.3°
4
66%
20:00
15°
1015.8 hPa 22.4 mm 5.7°
4
91%
23:00
13°
1018.5 hPa 22.5 mm 6.4°
4
91%
 07:51     20:44    Daglengte: 12:53 Zondag 05 Apr
02:00
10°
1021.1 hPa 23.2 mm 6.6°
4
91%
05:00
Voelt als: 7.8°
1022.3 hPa 24.9 mm 5.8°
3
91%
08:00
Voelt als: 7.5°
1023.7 hPa 26.4 mm 5.0°
2
92%
11:00
12°
1023.7 hPa 27.5 mm 6.4°
2
79%
14:00
15°
1023.8 hPa 28.0 mm 7.3°
2
66%
17:00
15°
1023.3 hPa 28.5 mm 8.2°
2
79%
20:00
16°
1023.0 hPa 28.5 mm 9.0°
1
91%
23:00
13°
1024.6 hPa 28.6 mm 8.5°
2
87%
 07:50     20:45    Daglengte: 12:55 Maandag 06 Apr
02:00
10°
1026.1 hPa 28.7 mm 7.7°
2
82%
05:00
10°
Voelt als: 8.8°
1026.8 hPa 28.9 mm 7.0°
2
85%
08:00
Voelt als: 8.2°
1027.5 hPa 29.3 mm 6.3°
2
87%
11:00
13°
1027.4 hPa 29.5 mm 7.3°
2
73%
14:00
16°
1027.3 hPa 29.6 mm 7.8°
2
60%
17:00
17°
1026.1 hPa 29.9 mm 9.0°
1
48%
20:00
18°
1025.0 hPa 32.2 mm 10.4°
1
37%
23:00
14°
1026.2 hPa 33.4 mm 9.1°
2
23%
 07:48     20:46    Daglengte: 12:58 Dinsdag 07 Apr
02:00
11°
1027.3 hPa 67.4 mm 7.6°
2
9%
08:00
Voelt als: 6.9°
1028.2 hPa 68.5 mm 5.6°
2
27%
14:00
19°
1026.5 hPa 68.9 mm 7.1°
2
57%
20:00
19°
1023.9 hPa 69.2 mm 8.8°
2
5%
 07:46     20:47    Daglengte: 13:01 Woensdag 08 Apr
02:00
11°
1026.7 hPa 69.3 mm 5.2°
2
90%
08:00
Voelt als: 8.2°
1026.9 hPa 69.7 mm 4.4°
2
92%
14:00
17°
1026.9 hPa 69.8 mm 7.4°
1
91%
20:00
17°
1024.9 hPa 69.8 mm 10.8°
1
80%
 07:45     20:48    Daglengte: 13:03 Donderdag 09 Apr
02:00
12°
1025.5 hPa 69.8 mm 9.6°
1
87%
08:00
Voelt als: 8.0°
1024.1 hPa 69.8 mm 7.7°
1
27%
14:00
19°
1016.5 hPa 70.0 mm 11.6°
5
1%
20:00
19°
1015.9 hPa 70.6 mm 9.3°
4
1%
 07:43     20:49    Daglengte: 13:06 Vrijdag 10 Apr
02:00
11°
1021.0 hPa 0.2 mm 8.5°
0
50%
08:00
Voelt als: 9.4°
1021.2 hPa 0.1 mm 7.4°
1
47%
14:00
18°
1020.7 hPa 0.5 mm 8.5°
1
57%
20:00
18°
1019.1 hPa 0.6 mm 9.5°
1
52%
 07:42     20:50    Daglengte: 13:08 Zaterdag 11 Apr
02:00
11°
1022.1 hPa 0.3 mm 7.6°
1
46%
08:00
Voelt als: 8.3°
1022.6 hPa 0.1 mm 6.0°
1
45%
14:00
17°
1021.4 hPa 0.2 mm 6.8°
0
52%
20:00
17°
1019.3 hPa 0.7 mm 8.5°
1
44%
 07:40     20:51    Daglengte: 13:11 Zondag 12 Apr
02:00
10°
1021.8 hPa 0.2 mm 6.4°
1
37%
08:00
Voelt als: 7.3°
1021.2 hPa 0.1 mm 5.4°
2
35%
14:00
18°
1018.9 hPa 0.3 mm 6.3°
1
32%
20:00
17°
1016.3 hPa 0.7 mm 8.3°
0
36%
 07:39     20:52    Daglengte: 13:13 Maandag 13 Apr
02:00
10°
1018.7 hPa 0.8 mm 5.5°
1
36%
08:00
Voelt als: 7.2°
1018.7 hPa 0.2 mm 4.4°
1
23%
14:00
17°
1016.7 hPa 0.3 mm 5.2°
0
25%
20:00
17°
1014.8 hPa 0.3 mm 6.3°
1
33%
 07:37     20:53    Daglengte: 13:16 Dinsdag 14 Apr
02:00
Voelt als: 9.1°
1017.8 hPa   5.3°
1
29%
08:00
Voelt als: 6.4°
1018.3 hPa 0.1 mm 4.6°
1
27%
14:00
16°
1016.7 hPa 0.2 mm 4.3°
1
27%
20:00
16°
1015.6 hPa 0.5 mm 5.7°
1
28%
 07:36     20:54    Daglengte: 13:18 Woensdag 15 Apr
02:00
1019.3 hPa   4.2°
1
25%
  CAPE Lifted Index Hail Supercell Tornado SRH 3km CL BTM PRES CL TOP PRES Swiss DWD icon SMHI TS
 07:59     20:38    Daglengte: 12:39 Vandaag
05:00 1 J/kg 3.7 K 0 % 0 % 0 % 0 m²/s² 0 0 4.18 73
06:00 1 J/kg 4.0 K 0 % 0 % 0 % 0 m²/s² 0 0 4.24 61
07:00 0 J/kg 3.9 K 0 % 0 % 0 % 0 m²/s² 0 0 4.17 61
08:00 0 J/kg 4.0 K 0 % 0 % 0 % 0 m²/s² 0 0 4.45 61
09:00 0 J/kg 4.1 K 0 % 0 % 0 % 0 m²/s² 0 0 4.34 61
10:00 0 J/kg 4.1 K 0 % 0 % 0 % 0 m²/s² 0 0 4.43 61
11:00 0 J/kg 2.7 K 0 % 0 % 0 % 0 m²/s² 0 0 2.94 61
12:00 1 J/kg 1.6 K 0 % 0 % 0 % 0 m²/s² 0 0 2.02 61
13:00 2 J/kg 1.9 K 0 % 0 % 0 % 0 m²/s² 0 0 2.26 61
14:00 18 J/kg 1.3 K 0 % 0 % 0 % 0 m²/s² 0 0 1.93 61
15:00 27 J/kg 1.8 K 0 % 0 % 0 % 0 m²/s² 0 0 2.13 61
16:00 33 J/kg 1.1 K 0 % 0 % 0 % 0 m²/s² 0 0 1.34 61
17:00 32 J/kg 0.3 K 0 % 0 % 0 % 0 m²/s² 0 0 0.84 61
18:00 28 J/kg -0.1 K 0 % 0 % 0 % 0 m²/s² 0 0 1.46 61
19:00 126 J/kg -1.4 K 0 % 0 % 0 % 0 m²/s² 0 0 0.22 80
20:00 321 J/kg -2.3 K 0 % 0 % 0 % 0 m²/s² 0 0 -0.95 61
21:00 225 J/kg -2.6 K 0 % 0 % 0 % 0 m²/s² 0 0 -1.04 63
22:00 2 J/kg 0.9 K 0 % 0 % 0 % 0 m²/s² 0 0 1.8 61
23:00 0 J/kg 0.0 K 0 % 0 % 0 % 0 m²/s² 0 0 0.12 80
 07:58     20:39    Daglengte: 12:41 Morgen
00:00 86 J/kg -0.6 K 0 % 0 % 0 % 0 m²/s² 0 0 0.33 80
01:00 171 J/kg -1.6 K 0 % 0 % 0 % 0 m²/s² 0 0 -1.45 80
02:00 179 J/kg 0.0 K 0 % 0 % 0 % 0 m²/s² 0 0 0.33 80
03:00 77 J/kg 0.2 K 0 % 0 % 0 % 0 m²/s² 0 0 0.35 80
04:00 61 J/kg 0.6 K 0 % 0 % 0 % 0 m²/s² 0 0 0.75 80
05:00 5 J/kg 2.3 K 0 % 0 % 0 % 0 m²/s² 0 0 2.54 80
06:00 26 J/kg 1.7 K 0 % 0 % 0 % 0 m²/s² 0 0 2.54 80
07:00 48 J/kg 2.3 K 0 % 0 % 0 % 0 m²/s² 0 0 3.38 80
08:00 51 J/kg 2.4 K 0 % 0 % 0 % 0 m²/s² 0 0 3.72 80
09:00 10 J/kg 2.6 K 0 % 0 % 0 % 0 m²/s² 0 0 5.75 80
10:00 8 J/kg 3.5 K 0 % 0 % 0 % 0 m²/s² 0 0 9.98 80
11:00 5 J/kg 4.7 K 0 % 0 % 0 % 0 m²/s² 0 0 10.64 80
12:00 4 J/kg 4.5 K 0 % 0 % 0 % 0 m²/s² 0 0 9.27 80
13:00 0 J/kg 4.3 K 0 % 0 % 0 % 0 m²/s² 0 0 8.86 80
14:00 0 J/kg 4.0 K 0 % 0 % 0 % 0 m²/s² 0 0 9.19 80
15:00 0 J/kg 3.5 K 0 % 0 % 0 % 0 m²/s² 0 0 8.99 80
16:00 0 J/kg 2.6 K 0 % 0 % 0 % 0 m²/s² 0 0 8.09 80
17:00 0 J/kg 2.0 K 0 % 0 % 0 % 0 m²/s² 0 0 7.79 80
18:00 0 J/kg 1.5 K 0 % 0 % 0 % 0 m²/s² 0 0 7.83 80
19:00 0 J/kg 1.2 K 0 % 0 % 0 % 0 m²/s² 0 0 7.53 2
20:00 0 J/kg 1.3 K 0 % 0 % 0 % 0 m²/s² 0 0 7.63 1
21:00 0 J/kg 1.2 K 0 % 0 % 0 % 0 m²/s² 0 0 7.71 0
22:00 0 J/kg 1.3 K 0 % 0 % 0 % 0 m²/s² 0 0 6.88 0
23:00 0 J/kg 1.5 K 0 % 0 % 0 % 0 m²/s² 0 0 5.25 0
 07:56     20:40    Daglengte: 12:44 Donderdag 02 Apr
00:00 0 J/kg 1.9 K 0 % 0 % 0 % 0 m²/s² 0 0 4.63 0
01:00 0 J/kg 1.5 K 0 % 0 % 0 % 0 m²/s² 0 0 4.08 1
02:00 0 J/kg 0.9 K 0 % 0 % 0 % 0 m²/s² 0 0 3.21 2
03:00 0 J/kg 0.6 K 0 % 0 % 0 % 0 m²/s² 0 0 2.13 3
04:00 0 J/kg 0.4 K 0 % 0 % 0 % 0 m²/s² 0 0 2.08 2
05:00 0 J/kg 0.2 K 0 % 0 % 0 % 0 m²/s² 0 0 2.66 3
06:00 0 J/kg -0.2 K 0 % 0 % 0 % 0 m²/s² 0 0 2.47 3
07:00 0 J/kg -0.3 K 0 % 0 % 0 % 0 m²/s² 0 0 2.94 3
08:00 0 J/kg 0.5 K 0 % 0 % 0 % 0 m²/s² 0 0 2.15 3
09:00 0 J/kg 1.3 K 0 % 0 % 0 % 0 m²/s² 0 0 2.35 61
10:00 0 J/kg 1.9 K 0 % 0 % 0 % 0 m²/s² 0 0 2.95 61
11:00 5 J/kg 0.9 K 0 % 0 % 0 % 0 m²/s² 0 0 1.68 61
12:00 104 J/kg -0.3 K 0 % 0 % 0 % 0 m²/s² 0 0 0.3 2
13:00 202 J/kg -1.3 K 0 % 0 % 0 % 0 m²/s² 0 0 -0.37 2
14:00 187 J/kg -1.3 K 0 % 0 % 0 % 0 m²/s² 0 0 0.59 1
15:00 218 J/kg -1.4 K 0 % 0 % 0 % 0 m²/s² 0 0 0.73 3
16:00 234 J/kg -1.7 K 0 % 0 % 0 % 0 m²/s² 0 0 0.37 3
17:00 194 J/kg -1.3 K 0 % 0 % 0 % 0 m²/s² 0 0 1.25 2
18:00 120 J/kg -0.9 K 0 % 0 % 0 % 0 m²/s² 0 0 2.04 1
19:00 182 J/kg -1.2 K 0 % 0 % 0 % 0 m²/s² 0 0 2.07 2
20:00 78 J/kg -0.2 K 0 % 0 % 0 % 0 m²/s² 0 0 3.07 1
21:00 12 J/kg 0.7 K 0 % 0 % 0 % 0 m²/s² 0 0 4.33 0
22:00 0 J/kg 0.5 K 0 % 0 % 0 % 0 m²/s² 0 0 4.55 0
23:00 0 J/kg 1.1 K 0 % 0 % 0 % 0 m²/s² 0 0 5.93 1
 07:54     20:42    Daglengte: 12:48 Vrijdag 03 Apr
00:00 0 J/kg 1.7 K 0 % 0 % 0 % 0 m²/s² 0 0 6.8 1
01:00 0 J/kg 1.7 K 0 % 0 % 0 % 0 m²/s² 0 0 6.83 1
02:00 0 J/kg 2.3 K 0 % 0 % 0 % 0 m²/s² 0 0 7.43 1
03:00 0 J/kg 2.7 K 0 % 0 % 0 % 0 m²/s² 0 0 8.1
04:00 0 J/kg 2.5 K 0 % 0 % 0 % 0 m²/s² 0 0 8.05
Temp Baro Wind Neerslag
  EWN Forecast EWN WRFDA DWD ICON FMI HIRLAM MET Norway GFS
 07:59     20:38    Daglengte: 12:39 Vandaag
05:00 1.3° 1010.1 hPa 6.4 m/s 5.7 mm 0.5° 1006.4 hPa 6.5 m/s 7.4 mm 0.5° 1010.0 hPa 4.8 m/s 7.9 mm 2.1° 1010.6 hPa 7.2 m/s 0.0 mm 1.4° 1010.7 hPa 6.0 m/s 2.1° 1008.6 hPa 7.1 m/s
08:00 1.6° 1009.1 hPa 5.8 m/s 7.0 mm 1.6° 1005.3 hPa 5.7 m/s 28.0 mm 1.2° 1009.3 hPa 4.2 m/s 4.4 mm 1.6° 1009.4 hPa 6.7 m/s 0.0 mm 1.7° 1009.8 hPa 5.6 m/s 3.5° 1007.7 hPa 6.1 m/s
11:00 3.3° 1009.2 hPa 5.4 m/s 8.9 mm 5.0° 1005.9 hPa 3.8 m/s 39.6 mm 3.1° 1009.7 hPa 3.4 m/s 3.7 mm 3.6° 1009.0 hPa 6.7 m/s 0.0 mm 3.2° 1009.7 hPa 5.5 m/s 5.6° 1008.0 hPa 3.7 m/s
14:00 6.5° 1008.6 hPa 4.6 m/s 11.5 mm 10.4° 1005.3 hPa 9.5 m/s 55.0 mm 6.7° 1009.2 hPa 2.1 m/s 4.7 mm 8.0° 1008.0 hPa 6.7 m/s 0.0 mm 5.7° 1009.3 hPa 3.7 m/s 7.6° 1007.9 hPa 4.3 m/s
17:00 8.3° 1007.4 hPa 3.7 m/s 12.1 mm 10.8° 1005.4 hPa 4.5 m/s 58.6 mm 8.3° 1007.8 hPa 2.2 m/s 5.0 mm 10.6° 1006.1 hPa 3.3 m/s 0.0 mm 7.1° 1008.5 hPa 5.4 m/s 8.5° 1007.3 hPa 4.2 m/s
20:00 8.4° 1007.6 hPa 4.0 m/s 10.8 mm 11.5° 1005.0 hPa 4.3 m/s 60.0 mm 7.9° 1008.5 hPa 3.3 m/s 3.0 mm 11.8° 1006.5 hPa 6.1 m/s 0.0 mm 7.3° 1008.2 hPa 4.0 m/s 9.4° 1007.3 hPa 4.3 m/s
23:00 8.6° 1009.3 hPa 3.5 m/s 11.7 mm 9.5° 1007.4 hPa 3.3 m/s 62.5 mm 7.2° 1010.3 hPa 1.7 m/s 4.1 mm 10.3° 1008.3 hPa 7.2 m/s 0.0 mm 7.7° 1009.7 hPa 3.0 m/s 8.6° 1009.4 hPa 3.8 m/s
 07:58     20:39    Daglengte: 12:41 Morgen
02:00 8.6° 1009.5 hPa 4.0 m/s 12.4 mm 9.7° 1007.6 hPa 6.7 m/s 67.4 mm 8.3° 1009.6 hPa 1.9 m/s 2.2 mm 9.6° 1009.2 hPa 6.2 m/s 0.0 mm 8.3° 1010.2 hPa 3.2 m/s 8.2° 1010.1 hPa 3.8 m/s
05:00 8.3° 1009.3 hPa 3.1 m/s 16.9 mm 7.8° 1007.6 hPa 3.3 m/s 88.1 mm 8.3° 1009.2 hPa 2.2 m/s 2.7 mm 9.8° 1009.1 hPa 4.6 m/s 0.0 mm 7.7° 1010.1 hPa 2.6 m/s 8.5° 1009.8 hPa 3.6 m/s
08:00 7.9° 1010.1 hPa 2.6 m/s 18.4 mm 7.4° 1009.2 hPa 4.2 m/s 105.0 mm 8.0° 1009.2 hPa 1.7 m/s 1.6 mm 9.1° 1010.3 hPa 3.4 m/s 0.0 mm 6.7° 1010.6 hPa 2.0 m/s 6.5° 1011.7 hPa 3.4 m/s
11:00 9.3° 1011.7 hPa 2.8 m/s 13.2 mm 7.1° 1011.1 hPa 3.7 m/s 106.9 mm 9.3° 1010.6 hPa 2.3 m/s 2.5 mm 10.1° 1011.4 hPa 3.2 m/s 0.0 mm 9.5° 1012.1 hPa 1.9 m/s 8.9° 1013.0 hPa 3.9 m/s
14:00 11.3° 1011.2 hPa 2.9 m/s 22.5 mm 10.4° 1011.2 hPa 3.1 m/s 106.9 mm 11.3° 1010.4 hPa 2.9 m/s 1.8 mm 11.1° 1010.9 hPa 4.1 m/s 0.0 mm 12.3° 1011.3 hPa 1.7 m/s 11.7° 1012.2 hPa 3.5 m/s
17:00 12.6° 1009.5 hPa 2.4 m/s 22.1 mm 12.7° 1009.7 hPa 2.0 m/s 106.9 mm 11.5° 1009.6 hPa 3.5 m/s 1.1 mm 13.0° 1008.8 hPa 2.5 m/s 0.0 mm 12.8° 1009.2 hPa 1.3 m/s 13.4° 1010.5 hPa 2.8 m/s
20:00 10.5° 1010.3 hPa 1.3 m/s 0.0 mm 12.8° 1009.0 hPa 1.4 m/s 106.9 mm 10.0° 1010.8 hPa 3.1 m/s 0.3 mm 12.5° 1009.3 hPa 1.1 m/s 0.0 mm 10.1° 1010.4 hPa 0.3 m/s 12.3° 1010.4 hPa 1.8 m/s
23:00 7.5° 1011.9 hPa 1.1 m/s 0.0 mm 10.2° 1011.0 hPa 3.2 m/s 106.9 mm 7.3° 1012.0 hPa 0.9 m/s 0.0 mm 7.5° 1012.1 hPa 0.9 m/s 9.4° 1013.0 hPa 1.8 m/s
 07:56     20:40    Daglengte: 12:44 Donderdag 02 Apr
02:00 5.7° 1011.7 hPa 1.5 m/s 0.0 mm 8.3° 1010.6 hPa 3.7 m/s 106.9 mm 5.5° 1012.4 hPa 0.4 m/s 0.0 mm 5.7° 1011.8 hPa 1.5 m/s 7.8° 1013.4 hPa 0.3 m/s
05:00 3.4° 1011.0 hPa 2.1 m/s 0.0 mm 7.9° 1009.6 hPa 6.4 m/s 106.9 mm 4.3° 1011.9 hPa 0.8 m/s 0.2 mm 2.9° 1010.9 hPa 2.0 m/s 7.0° 1012.4 hPa 0.8 m/s
08:00 3.3° 1011.3 hPa 1.9 m/s 0.0 mm 6.4° 1009.5 hPa 5.9 m/s 106.9 mm 4.6° 1012.4 hPa 0.4 m/s 0.1 mm 2.9° 1011.3 hPa 1.9 m/s 6.3° 1012.5 hPa 2.0 m/s
11:00 8.6° 1012.7 hPa 2.1 m/s 21.9 mm 10.0° 1010.8 hPa 6.2 m/s 106.9 mm 7.5° 1013.9 hPa 0.9 m/s 0.5 mm 8.7° 1012.7 hPa 1.8 m/s 9.9° 1012.2 hPa 5.0 m/s
14:00 13.0° 1011.7 hPa 2.1 m/s 23.9 mm 13.9° 1010.9 hPa 6.1 m/s 107.0 mm 13.4° 1012.4 hPa 1.1 m/s 0.0 mm 12.6° 1011.6 hPa 1.8 m/s 14.4° 1012.0 hPa 3.6 m/s
17:00 13.9° 1011.3 hPa 3.4 m/s 24.5 mm 16.0° 1009.6 hPa 6.3 m/s 107.1 mm 16.1° 1011.3 hPa 3.4 m/s 0.0 mm 11.7° 1011.6 hPa 2.8 m/s 15.6° 1010.3 hPa 3.6 m/s
20:00 12.8° 1012.4 hPa 3.2 m/s 24.3 mm 14.7° 1010.7 hPa 6.0 m/s 107.1 mm 14.4° 1012.4 hPa 2.6 m/s 0.0 mm 11.1° 1012.8 hPa 3.0 m/s 12.2° 1011.6 hPa 4.6 m/s
23:00 9.6° 1014.8 hPa 2.8 m/s 0.0 mm 11.1° 1013.9 hPa 2.9 m/s 107.1 mm 10.4° 1015.0 hPa 1.6 m/s 0.0 mm 8.6° 1014.8 hPa 3.0 m/s 10.8° 1015.4 hPa 3.6 m/s
 07:54     20:42    Daglengte: 12:48 Vrijdag 03 Apr
02:00 7.2° 1016.4 hPa 2.7 m/s 0.0 mm 8.8° 1014.4 hPa 3.0 m/s 107.1 mm 8.2° 1016.3 hPa 1.3 m/s 0.0 mm 6.1° 1016.9 hPa 3.0 m/s 8.9° 1016.3 hPa 3.3 m/s
05:00 4.2° 1017.2 hPa 2.6 m/s 107.1 mm 7.6° 1014.2 hPa 3.6 m/s 107.1 mm 3.6° 1017.8 hPa 2.5 m/s 7.7° 1016.5 hPa 1.7 m/s
08:00 1.9° 1018.1 hPa 2.1 m/s 107.1 mm 6.8° 1014.9 hPa 3.0 m/s 107.1 mm 1.1° 1018.6 hPa 1.9 m/s 6.3° 1017.2 hPa 1.6 m/s
11:00 9.2° 1017.5 hPa 2.2 m/s 22.3 mm 9.2° 1017.7 hPa 2.2 m/s 10.0° 1015.4 hPa 2.6 m/s 22.3 mm
14:00 13.3° 1017.0 hPa 2.2 m/s 22.3 mm 13.2° 1017.3 hPa 2.3 m/s 14.2° 1014.0 hPa 1.7 m/s 22.3 mm
17:00 13.8° 1015.8 hPa 1.6 m/s 22.3 mm 13.5° 1016.1 hPa 1.6 m/s 16.6° 1011.7 hPa 1.0 m/s 22.3 mm
20:00 13.9° 1014.7 hPa 1.0 m/s 22.3 mm 13.8° 1015.0 hPa 1.0 m/s 15.4° 1011.9 hPa 1.5 m/s 22.3 mm
23:00 10.3° 1016.2 hPa 1.7 m/s 22.3 mm 10.1° 1016.4 hPa 1.6 m/s 12.7° 1014.1 hPa 2.4 m/s 22.3 mm
 07:53     20:43    Daglengte: 12:50 Zaterdag 04 Apr
02:00 6.6° 1017.5 hPa 2.5 m/s 22.3 mm 6.3° 1017.7 hPa 2.3 m/s 9.8° 1015.7 hPa 4.1 m/s 22.3 mm
05:00 5.4° 1018.1 hPa 2.7 m/s 22.3 mm 5.1° 1018.4 hPa 2.6 m/s 8.4° 1015.1 hPa 3.1 m/s 22.3 mm
08:00 4.2° 1018.8 hPa 3.0 m/s 22.3 mm 3.9° 1019.1 hPa 3.0 m/s 7.2° 1015.8 hPa 3.6 m/s 22.3 mm
11:00 9.9° 1017.6 hPa 3.7 m/s 22.3 mm 9.8° 1018.0 hPa 3.6 m/s 10.5° 1014.1 hPa 4.6 m/s 22.3 mm
14:00 15.6° 1016.5 hPa 4.3 m/s 22.3 mm 15.7° 1016.8 hPa 4.2 m/s 14.2° 1013.0 hPa 5.5 m/s 22.3 mm
17:00 15.6° 1016.1 hPa 4.1 m/s 22.3 mm 15.4° 1016.5 hPa 4.0 m/s 16.7° 1011.7 hPa 6.2 m/s 22.3 mm
20:00 15.1° 1015.8 hPa 4.0 m/s 22.4 mm 15.2° 1016.1 hPa 3.7 m/s 13.9° 1012.9 hPa 7.7 m/s 22.4 mm
23:00 12.6° 1018.5 hPa 3.8 m/s 22.5 mm 12.7° 1018.8 hPa 3.5 m/s 11.6° 1015.3 hPa 7.6 m/s 22.5 mm
 07:51     20:44    Daglengte: 12:53 Zondag 05 Apr
02:00 10.2° 1021.1 hPa 3.5 m/s 23.2 mm 10.2° 1021.5 hPa 3.3 m/s 10.6° 1016.4 hPa 6.2 m/s 23.2 mm
05:00 9.3° 1022.3 hPa 2.8 m/s 24.9 mm 9.3° 1022.9 hPa 2.5 m/s 9.2° 1015.6 hPa 5.4 m/s 24.9 mm
08:00 8.6° 1023.7 hPa 2.0 m/s 26.4 mm 8.5° 1024.3 hPa 1.8 m/s 9.2° 1016.9 hPa 4.0 m/s 26.4 mm
11:00 11.8° 1023.7 hPa 2.2 m/s 27.5 mm 12.1° 1024.3 hPa 2.0 m/s 9.3° 1017.1 hPa 4.2 m/s 27.5 mm
14:00 15.4° 1023.8 hPa 2.2 m/s 28.0 mm 15.6° 1024.4 hPa 2.2 m/s 13.3° 1017.2 hPa 2.5 m/s 28.0 mm
17:00 15.5° 1023.3 hPa 1.8 m/s 28.5 mm 15.6° 1024.0 hPa 1.8 m/s 13.6° 1016.0 hPa 1.8 m/s 28.5 mm
20:00 15.6° 1023.0 hPa 1.4 m/s 28.5 mm 15.7° 1023.6 hPa 1.4 m/s 14.3° 1016.6 hPa 1.1 m/s 28.5 mm
23:00 12.9° 1024.6 hPa 1.7 m/s 28.6 mm 12.9° 1025.2 hPa 1.6 m/s 12.6° 1018.7 hPa 2.0 m/s 28.6 mm
 07:50     20:45    Daglengte: 12:55 Maandag 06 Apr
02:00 10.3° 1026.1 hPa 1.9 m/s 28.7 mm 10.1° 1026.7 hPa 1.9 m/s 12.0° 1019.3 hPa 2.2 m/s 28.7 mm
05:00 9.7° 1026.8 hPa 2.1 m/s 28.9 mm 9.6° 1027.5 hPa 2.0 m/s 11.8° 1018.8 hPa 3.0 m/s 28.9 mm
08:00 9.2° 1027.5 hPa 2.2 m/s 29.3 mm 9.0° 1028.3 hPa 2.1 m/s 11.8° 1019.2 hPa 3.1 m/s 29.3 mm
11:00 12.8° 1027.4 hPa 1.9 m/s 29.5 mm 12.8° 1028.2 hPa 1.6 m/s 13.9° 1019.7 hPa 4.6 m/s 29.5 mm
14:00 16.4° 1027.3 hPa 1.6 m/s 29.6 mm 16.5° 1028.0 hPa 1.2 m/s 15.5° 1020.0 hPa 5.7 m/s 29.6 mm
17:00 17.1° 1026.1 hPa 1.5 m/s 29.9 mm 17.2° 1026.8 hPa 1.1 m/s 14.8° 1019.5 hPa 5.2 m/s 29.9 mm
20:00 17.6° 1025.0 hPa 1.3 m/s 32.2 mm 18.0° 1025.5 hPa 1.1 m/s 12.9° 1019.4 hPa 3.5 m/s 32.2 mm
23:00 14.4° 1026.2 hPa 1.6 m/s 33.4 mm 14.5° 1026.7 hPa 1.5 m/s 12.8° 1020.9 hPa 2.2 m/s 33.4 mm
 07:48     20:46    Daglengte: 12:58 Dinsdag 07 Apr
02:00 11.1° 1027.3 hPa 1.9 m/s 34.0 mm 11.0° 1027.9 hPa 1.9 m/s 12.7° 1020.8 hPa 1.8 m/s 34.0 mm
08:00 7.8° 1028.2 hPa 1.8 m/s 34.3 mm 7.4° 1029.0 hPa 1.8 m/s 12.4° 1019.9 hPa 1.6 m/s 34.3 mm
14:00 18.8° 1026.5 hPa 2.2 m/s 34.6 mm 18.9° 1027.1 hPa 2.0 m/s 17.6° 1019.6 hPa 4.5 m/s 34.6 mm
20:00 18.8° 1023.9 hPa 2.1 m/s 34.6 mm 19.0° 1024.4 hPa 1.8 m/s 17.1° 1018.5 hPa 5.1 m/s 34.6 mm
 07:46     20:47    Daglengte: 13:01 Woensdag 08 Apr
02:00 11.3° 1026.7 hPa 1.6 m/s 34.7 mm 11.1° 1027.3 hPa 1.3 m/s 13.4° 1019.8 hPa 4.6 m/s 34.7 mm
08:00 8.9° 1026.9 hPa 1.7 m/s 34.9 mm 8.6° 1027.6 hPa 1.5 m/s 11.9° 1018.9 hPa 3.7 m/s 34.9 mm
14:00 16.5° 1026.9 hPa 1.2 m/s 34.9 mm 16.2° 1027.7 hPa 1.1 m/s 20.3° 1018.2 hPa 2.7 m/s 34.9 mm
20:00 16.7° 1024.9 hPa 1.3 m/s 34.9 mm 16.4° 1025.6 hPa 1.0 m/s 20.5° 1016.8 hPa 4.5 m/s 34.9 mm
 07:45     20:48    Daglengte: 13:03 Donderdag 09 Apr
02:00 12.4° 1025.5 hPa 0.8 m/s 34.9 mm 12.1° 1026.0 hPa 0.8 m/s 15.5° 1019.8 hPa 1.0 m/s 34.9 mm
08:00 8.4° 1024.1 hPa 1.3 m/s 34.9 mm 7.9° 1024.7 hPa 1.4 m/s 13.4° 1017.5 hPa 0.2 m/s 34.9 mm
14:00 19.4° 1016.5 hPa 5.0 m/s 35.1 mm 19.4° 1016.5 hPa 5.0 m/s 35.1 mm
20:00 19.0° 1015.9 hPa 4.0 m/s 35.3 mm 19.0° 1015.9 hPa 4.0 m/s 35.3 mm
 07:43     20:49    Daglengte: 13:06 Vrijdag 10 Apr
02:00 11.3° 1021.0 hPa 0.2 m/s 0.2 mm
08:00 9.4° 1021.2 hPa 0.7 m/s 0.1 mm
14:00 17.8° 1020.7 hPa 0.8 m/s 0.5 mm
20:00 17.5° 1019.1 hPa 0.8 m/s 0.6 mm
 07:42     20:50    Daglengte: 13:08 Zaterdag 11 Apr
02:00 10.8° 1022.1 hPa 0.7 m/s 0.3 mm
08:00 8.4° 1022.6 hPa 1.1 m/s 0.1 mm
14:00 17.3° 1021.4 hPa 0.3 m/s 0.2 mm
20:00 17.0° 1019.3 hPa 0.5 m/s 0.7 mm
 07:40     20:51    Daglengte: 13:11 Zondag 12 Apr
02:00 10.1° 1021.8 hPa 1.5 m/s 0.2 mm
08:00 8.0° 1021.2 hPa 1.5 m/s 0.1 mm
14:00 17.8° 1018.9 hPa 0.9 m/s 0.3 mm
20:00 17.3° 1016.3 hPa 0.4 m/s 0.7 mm
 07:39     20:52    Daglengte: 13:13 Maandag 13 Apr
02:00 9.9° 1018.7 hPa 0.8 m/s 0.8 mm
08:00 7.4° 1018.7 hPa 1.1 m/s 0.2 mm